User: anonymous   Login
Location: Unspecified
(51.0950°N, 12.9690°E)
Time: 08:06:16
(UTC+00:00)
Language:

NOAA 16 DEB - Orbit

View from above orbital plane
View from above orbital plane
View from above satellite
View from above satellite

Ground track
Ground track

The orbit data is extracted from the following two-line orbital elements,

1 41349U 00055HS  24203.39048444  .00011435  00000-0  38922-2 0  9998
2 41349  98.9715   2.3239 0036337  21.5138 338.7564 14.36303490442844
Epoch (UTC): 21 July 2024 09:22:17
Eccentricity: 0.0036337
inclination: 98.9715°
perigee height: 745 km
apogee height: 797 km
right ascension of ascending node: 2.3239°
argument of perigee: 21.5138°
revolutions per day: 14.36303490
mean anomaly at epoch: 338.7564°
orbit number at epoch: 44284

The dashed part of the orbit path shows where the satellite is in the earth's shadow,  

DLR